Regional Weather Roundup
Issued by NWS Cleveland, OH

Home | Current Version | Previous Version | Graphics & Text | Print | Product List | Glossary On
Versions: 1 2 3 4 5 6 7 8 9 10 11 12 13 14 15 16 17 18 19 20 21 22 23 24 25 26 27 28 29 30 31 32 33 34 35 36 37 38 39 40 41 42 43 44 45 46 47 48 49 50
000
ASUS41 KCLE 261312
RWRCLE
OHIO REGIONAL WEATHER ROUNDUP
NATIONAL WEATHER SERVICE WILMINGTON, OH
900 AM EDT WED APR 26 2017

NOTE: "FAIR" INDICATES FEW OR NO CLOUDS BELOW 12,000 FEET WITH NO
SIGNIFICANT WEATHER AND/OR OBSTRUCTIONS TO VISIBILITY.

OHZ001>008-015>018-024>027-034-035-043-044-261400-
   NORTHWEST OHIO

CITY           SKY/WX    TMP DP  RH WIND       PRES   REMARKS
DEFIANCE       FAIR      63  55  75 S10G18    29.65F
FINDLAY        FAIR      64  54  69 SE12      29.69F
TOLEDO EXPRESS FAIR      64  57  78 S9        29.66F
TOLEDO EXEC    FAIR      63  58  83 S14       29.69F
LIMA           FAIR      64  57  78 S14       29.68F
$$

OHZ009>014-019>023-028>033-038-089-261400-
   NORTHEAST OHIO

CITY           SKY/WX    TMP DP  RH WIND       PRES   REMARKS
CLE-HOPKINS    FAIR      62  53  72 S9        29.78S
CLE-LAKEFRONT  FAIR      61  52  72 SE17      29.74S
CUY CO. ARPT   MOSUNNY   61  55  82 S9        29.78R
LORAIN-ELYRIA  FAIR      58  52  80 S13       29.76R
ASHTABULA      FAIR      59  54  83 S8        29.80R
AKRON-CANTON   PTSUNNY   58  52  80 S8        29.79S HAZE
WOOSTER        CLOUDY    54  53  97 S8        29.78F FOG
MANSFIELD      FAIR      61  54  77 S10       29.76R
YOUNGSTOWN     FAIR      59  53  80 S7        29.81R
$$

OHZ042-051>053-060>062-070>072-077>081-261400-
  SOUTHWEST OHIO

CITY           SKY/WX    TMP DP  RH WIND       PRES   REMARKS
CINC-COVINGTON FAIR      65  57  75 S10       29.71S
CINC-LUNKEN    FAIR      62  60  93 S8        29.71F
HAMILTON       FAIR      66  58  75 CALM      29.71S
DAYTON         PTSUNNY   64  57  78 SE10      29.70F
WRIGHT-PAT AFB FAIR      65  59  80 S8        29.70F
DAYTON GENERAL FAIR      65  57  75 SE10      29.70F
WILMINGTON     FAIR      65  59  81 S10       29.72F
$$

OHZ036-037-039>041-045>050-054>059-063>069-073>076-082>088-261400-
  CENTRAL AND SOUTHEAST OHIO

CITY           SKY/WX    TMP DP  RH WIND       PRES   REMARKS
COLUMBUS       FAIR      62  55  77 SE9       29.75S
OSU AIRPORT    FAIR      62  56  80 SE7       29.75S
BOLTON FIELD   SUNNY     61  55  82 S8        29.76S
RICKENBACK AFB FAIR      61  56  85 S7        29.75F
NEWARK         FAIR      61  54  77 VRB3      29.77S
MARION         FAIR      62  54  74 S13       29.74S
LANCASTER      FAIR      62  55  77 SE8       29.77S
ZANESVILLE     FAIR      58  53  84 SE3       29.79R
NEW PHILLY     FAIR      55  54  96 SE6       29.80S
$$




USA.gov is the U.S. government's official web portal to all federal, state and local government web resources and services.